Lapse_Rate
6.5 6.3 6.3 6.1 6.1 6.0 6.0 6.0 6.2 6.2 6.2 6.3 6.5 6.7 6.9 7.0 7.1 7.1 7.3 7.4 7.6 7.7 7.7 7.6 7.8 8.1 8.6 8.6 8.8 8.7 9.3 9.6 9.1 9.3 8.4 8.3 8.1 8.7 8.4 8.5 8.3 8.3 8.1 7.8 7.7
6.6 6.5 6.3 6.1 6.1 6.1 6.1 6.3 6.3 6.4 6.5 6.6 6.9 7.0 7.1 7.1 7.3 7.3 7.5 7.6 7.7 7.7 7.7 7.6 7.7 8.2 8.5 8.8 8.9 8.8 9.5 8.7 9.1 8.5 8.5 8.8 7.9 7.9 7.7 8.2 8.2 8.1 8.0 7.7 7.9
6.7 6.5 6.3 6.2 6.3 6.3 6.4 6.5 6.6 6.6 6.7 6.9 7.1 7.3 7.3 7.4 7.4 7.4 7.6 7.7 7.8 7.7 7.6 7.7 8.0 8.4 8.7 8.7 8.8 9.0 8.9 9.0 9.1 9.1 9.0 9.1 8.9 8.2 7.9 8.3 8.0 8.0 7.9 7.7 7.8
6.8 6.7 6.4 6.4 6.5 6.6 6.6 6.8 6.7 6.8 6.9 7.1 7.2 7.3 7.4 7.4 7.4 7.4 7.6 7.7 7.6 7.4 7.5 7.7 8.1 8.4 8.8 8.9 9.0 9.1 9.2 9.2 9.3 9.3 9.1 9.1 9.2 8.8 8.7 8.2 7.9 7.9 7.8 7.7 7.6
6.8 6.6 6.5 6.6 6.7 6.8 6.8 6.9 6.9 7.0 7.1 7.2 7.4 7.3 7.3 7.3 7.2 7.4 7.6 7.4 7.4 7.4 7.6 7.7 7.9 8.4 8.6 8.6 9.1 9.3 9.3 9.3 9.3 9.2 9.1 9.0 9.1 8.9 8.4 8.1 8.0 7.7 7.6 7.6 7.5
6.7 6.7 6.7 6.8 6.8 6.9 7.0 7.1 7.1 7.2 7.3 7.4 7.4 7.3 7.4 7.3 7.4 7.5 7.5 7.4 7.4 7.5 7.6 7.9 8.0 8.3 8.2 8.7 8.7 9.2 9.2 9.1 9.1 8.8 8.8 8.5 8.6 8.4 7.8 7.7 7.7 7.5 7.4 7.5 7.4
6.7 6.8 6.9 6.9 7.0 7.1 7.2 7.2 7.3 7.4 7.5 7.5 7.5 7.5 7.4 6.9 7.4 7.5 7.4 7.2 7.2 7.3 7.6 7.8 8.0 7.9 8.4 9.0 9.3 9.2 8.5 7.4 7.4 7.5 8.0 7.8 8.1 8.1 7.7 8.0 7.6 7.6 7.7 7.5 7.1
6.9 7.0 7.0 7.1 7.2 7.3 7.3 7.4 7.6 7.6 7.6 7.4 7.4 7.3 7.0 7.2 7.4 7.5 7.2 7.1 7.2 7.4 7.6 7.8 8.0 8.1 8.3 9.1 8.6 8.4 8.4 8.7 7.2 7.5 8.2 8.0 8.0 7.9 7.5 7.4 7.6 7.3 7.5 7.2 7.2
6.9 7.0 7.0 7.1 7.2 7.3 7.5 7.5 7.7 7.6 7.4 7.4 7.4 7.4 7.2 7.2 7.2 7.4 7.3 7.3 7.4 7.6 7.7 7.9 8.2 8.3 8.9 8.6 8.7 8.8 9.2 8.5 7.7 7.7 7.3 7.4 8.3 7.9 7.3 6.8 6.8 6.9 7.0 6.7 6.8
6.9 6.8 6.8 6.9 7.1 7.2 7.3 7.3 7.3 7.3 7.2 7.3 7.4 7.5 7.4 7.3 7.6 7.7 7.7 7.7 7.8 7.9 8.1 8.3 8.5 9.1 9.4 9.5 9.8 9.3 8.7 8.2 8.1 7.7 7.8 8.3 8.3 7.9 6.7 6.7 6.9 6.6 6.7 6.6 6.5
6.8 6.7 6.8 6.8 6.9 7.1 7.1 7.1 7.1 7.1 7.3 7.3 7.5 7.5 7.5 7.6 7.8 7.8 7.9 8.1 8.2 8.2 8.5 9.0 9.6 9.5 9.4 9.3 9.0 9.0 8.7 7.9 7.2 7.8 7.3 6.7 7.0 7.1 6.9 6.4 6.7 6.6 6.5 6.5 6.8
6.9 6.9 6.9 7.0 7.1 7.1 7.0 7.0 7.1 7.2 7.2 7.4 7.5 7.6 7.8 7.8 8.0 8.0 8.3 8.2 8.7 8.8 8.9 9.3 9.1 9.0 8.7 8.7 8.8 8.8 8.5 7.9 8.1 8.1 7.1 6.4 6.0 6.5 6.1 5.9 6.4 6.5 6.7 6.6 6.5
7.0 7.0 7.0 7.1 7.1 7.0 7.0 7.1 7.1 7.4 7.4 7.5 7.7 7.9 8.0 8.0 8.0 8.1 8.4 8.4 8.7 9.1 9.3 9.5 8.7 8.8 8.7 8.8 9.0 8.8 9.1 8.2 8.3 8.0 6.7 6.3 6.1 6.1 6.4 6.5 6.6 6.7 6.7 6.8 6.6
7.0 7.0 7.1 7.1 7.0 6.9 7.1 7.2 7.4 7.6 8.1 7.7 7.8 7.9 8.0 8.2 8.3 8.4 8.5 8.6 8.9 9.3 9.1 8.8 8.7 8.6 8.7 8.7 8.9 9.5 8.6 8.3 8.2 7.9 9.2 7.2 8.9 7.3 6.4 6.6 6.6 6.4 6.5 6.5 6.1
7.1 7.1 7.1 7.1 7.0 7.0 7.2 7.4 7.6 7.7 8.5 7.7 7.8 8.0 8.0 8.2 8.3 8.4 8.6 8.7 9.1 9.1 9.0 8.8 8.7 9.0 8.9 8.5 8.6 8.6 8.5 8.2 7.9 8.1 7.7 7.9 8.2 8.3 7.4 6.5 6.9 6.5 6.5 6.4 6.3
7.2 7.3 7.3 7.3 7.1 7.2 7.4 7.6 7.7 8.0 8.1 8.0 7.9 8.1 8.3 8.3 8.3 8.4 8.5 8.9 8.9 9.0 9.0 8.7 8.7 8.7 8.6 8.6 8.5 8.4 8.0 8.0 8.2 8.6 9.4 8.5 8.5 8.5 7.2 6.8 6.5 6.6 6.3 6.3 6.2
7.2 7.3 7.3 7.3 7.2 7.3 7.5 7.8 8.0 8.6 7.9 8.1 8.3 8.3 8.5 8.4 8.4 8.6 8.5 8.8 9.2 9.1 9.0 8.6 8.5 8.4 8.5 8.9 8.2 8.0 9.0 9.5 9.7 9.7 9.7 8.4 8.6 6.5 6.7 6.9 6.6 6.4 6.4 6.3 5.9
7.3 7.2 7.2 7.3 7.2 7.4 7.6 7.6 8.2 8.0 8.2 8.2 8.1 8.5 8.7 8.6 8.7 8.8 8.7 8.8 8.8 8.9 9.4 9.5 9.2 8.3 7.9 8.0 8.2 8.2 8.1 9.4 8.8 9.7 9.7 8.9 8.8 6.6 6.4 6.5 6.4 6.5 6.5 6.1 5.7
7.4 7.3 7.2 7.2 7.3 7.5 7.5 8.0 8.0 7.8 7.9 8.1 8.5 8.9 8.7 8.6 8.8 8.7 8.4 8.3 8.5 8.6 9.1 9.3 8.6 7.8 7.8 7.4 7.7 8.3 8.4 7.8 8.0 9.2 9.4 9.3 6.8 6.4 6.2 6.1 6.3 6.1 6.1 5.8 5.5
7.4 7.3 7.2 7.2 7.3 7.5 7.4 7.5 7.5 7.8 8.1 8.3 8.5 8.5 8.8 8.5 8.8 8.9 8.5 8.4 8.3 8.5 8.6 8.4 8.9 7.5 7.3 7.6 7.5 7.5 7.4 8.1 9.0 8.8 9.0 9.6 8.5 6.4 6.0 6.0 6.2 6.2 5.9 5.8 5.9
7.4 6.8 7.2 7.4 7.4 7.4 7.5 7.5 7.4 7.8 8.1 8.1 8.2 8.3 8.2 8.3 8.3 8.4 8.2 8.2 8.3 8.3 8.2 8.0 8.1 7.7 7.6 7.3 7.3 7.7 7.8 7.5 7.4 7.8 8.9 9.5 7.1 6.0 6.0 6.1 6.2 6.2 6.2 5.9 5.8
7.3 6.8 7.2 7.4 7.1 7.4 7.5 7.5 7.6 7.6 7.9 8.0 8.1 8.3 8.2 8.3 8.1 8.2 7.8 7.9 7.7 7.6 7.3 7.3 7.5 8.1 7.7 6.7 6.7 6.7 6.8 7.0 7.7 7.9 7.6 7.7 6.5 5.9 5.9 5.9 6.0 6.3 5.9 5.9 5.9
7.1 7.1 7.1 7.3 7.2 7.0 7.3 7.3 7.4 7.5 7.7 7.9 8.0 8.2 8.2 7.9 7.7 7.4 7.2 7.3 7.4 7.3 7.1 7.1 7.1 8.1 7.4 6.5 6.7 6.7 6.8 6.8 6.7 7.1 7.3 8.1 6.8 5.9 5.7 5.8 6.3 6.0 6.0 6.1 5.9
6.9 6.6 6.8 7.1 7.2 6.8 7.0 7.0 7.3 7.3 7.4 7.7 7.8 7.8 7.6 7.4 7.3 7.1 6.8 6.9 7.0 7.0 7.0 6.9 6.7 7.1 7.8 7.1 6.8 6.9 6.7 6.9 7.0 7.6 7.5 6.8 7.0 6.4 5.9 6.0 6.0 6.1 5.9 5.9 5.9
6.8 6.8 6.8 6.6 6.9 7.0 7.1 7.1 7.1 7.1 7.5 7.5 7.3 7.3 7.3 7.4 7.2 7.1 6.9 6.8 6.8 6.8 6.7 6.7 6.6 6.6 6.5 6.6 6.6 6.6 6.6 6.6 6.7 6.7 7.0 6.8 6.8 6.4 5.9 5.8 5.7 5.8 6.0 5.7 5.6
6.7 6.7 6.6 6.6 6.8 6.9 7.0 7.1 7.0 7.3 7.3 7.2 7.1 7.1 7.0 7.0 7.0 7.0 7.0 7.0 6.9 6.5 6.7 6.6 6.5 6.6 6.5 6.5 6.6 6.7 6.5 6.6 6.5 6.5 6.8 6.7 6.1 6.0 5.9 5.9 5.9 5.9 5.7 5.6 4.9
6.6 6.6 6.6 6.5 6.5 6.7 6.7 6.9 7.0 7.0 7.0 7.0 6.9 6.8 6.7 6.8 6.9 6.9 6.9 6.8 6.7 6.7 6.6 6.5 6.6 6.9 7.3 6.6 6.6 7.2 6.6 6.6 6.6 6.5 6.1 6.5 6.0 5.5 5.5 5.3 5.7 5.6 5.5 5.0 4.6
Wind_Speed
8 9 9 10 10 10 11 11 12 13 13 14 13 14 14 15 20 5 3 5 3 6 8 4 7 5 6 4 3 4 5 6 9 9 9 3 11 12 13 16 18 13 16 16 12
8 9 9 11 9 11 11 11 12 13 13 13 13 14 13 14 8 4 6 4 2 6 6 4 4 5 4 3 2 4 5 8 9 6 10 11 11 11 10 16 14 17 15 13 11
8 8 9 9 10 10 11 11 11 11 12 13 13 14 13 12 7 6 8 3 5 6 5 4 3 5 4 3 3 7 6 5 7 10 11 17 17 5 15 12 12 12 15 13 14
9 9 10 10 10 10 11 10 9 10 11 12 13 15 16 5 1 5 8 8 9 7 6 3 5 4 8 7 5 11 15 9 4 7 5 12 16 21 18 10 14 15 15 16 15
10 9 11 10 10 10 11 8 10 9 10 12 12 13 6 6 7 6 6 8 8 6 4 2 5 1 6 11 16 16 13 16 16 18 19 20 19 15 16 14 14 16 17 16 13
10 10 9 9 10 8 9 9 8 8 10 10 10 13 5 3 4 5 4 5 5 6 1 3 6 4 9 4 2 13 18 17 13 11 15 19 15 6 8 10 14 16 14 14 13
11 11 9 8 8 8 7 8 5 8 9 8 7 4 4 5 2 4 5 3 2 4 5 3 2 3 9 16 18 20 16 14 9 9 16 10 18 10 8 7 13 14 13 13 13
13 12 10 8 8 7 5 6 6 8 8 6 6 4 2 3 2 7 6 7 4 4 5 3 1 4 4 18 12 8 5 5 6 4 2 6 4 6 5 9 10 13 12 13 13
15 14 11 9 8 6 5 6 7 8 7 5 5 4 7 7 4 3 6 2 5 3 3 3 5 7 15 13 11 7 6 11 8 3 0 4 8 4 4 6 9 10 11 12 13
16 16 13 10 7 6 6 6 6 7 6 4 3 4 3 4 2 1 3 5 5 4 6 7 7 11 12 12 2 11 8 6 6 8 9 12 10 7 5 4 7 10 12 11 10
17 16 14 10 7 4 4 4 5 5 6 5 5 4 3 8 3 5 4 6 5 5 8 5 8 9 11 10 10 8 10 12 9 6 5 8 9 7 6 6 8 7 7 8 10
16 16 13 10 7 4 6 3 5 4 2 1 3 6 5 3 2 4 3 5 6 8 7 6 10 7 8 8 8 8 9 8 6 4 4 7 6 7 5 8 8 6 7 6 6
15 14 12 8 1 4 1 5 5 4 4 4 0 2 2 2 5 7 3 2 8 9 2 9 11 6 6 6 3 3 7 6 2 8 4 9 11 10 8 7 6 5 5 6 6
16 11 9 3 1 2 2 6 5 6 4 6 5 3 2 2 4 4 4 3 2 12 13 9 6 5 3 3 7 2 3 5 10 10 5 13 5 15 15 10 8 7 5 5 6
17 11 5 6 4 1 5 6 3 4 2 4 6 2 2 2 2 4 5 1 3 6 7 8 5 2 7 7 4 6 1 5 9 11 6 14 6 10 11 10 10 7 5 5 4
17 9 3 5 3 3 6 2 4 6 4 6 3 4 7 4 4 4 5 9 3 6 11 9 4 7 4 5 8 7 2 5 9 8 12 8 4 9 3 5 2 10 7 6 5
17 5 2 2 2 8 5 4 5 2 3 4 4 3 6 4 6 3 5 5 2 4 8 8 5 5 8 4 8 6 8 11 9 7 6 6 6 11 15 11 9 9 9 8 7
13 3 2 4 5 6 6 4 2 3 6 3 3 6 3 1 4 3 3 7 9 6 2 5 8 5 8 8 7 4 8 8 13 11 12 5 4 5 8 7 7 10 9 8 5
7 2 2 7 6 5 6 2 3 4 3 1 6 4 7 4 1 4 9 5 9 8 5 2 4 5 7 8 9 9 6 7 10 12 9 3 11 8 4 4 4 5 5 3 3
1 1 4 11 6 4 3 5 3 4 4 1 3 4 5 5 2 1 3 6 3 10 4 3 2 1 3 5 7 9 5 7 5 7 9 2 6 6 10 3 3 5 3 4 2
2 2 5 7 4 3 3 5 5 6 2 4 6 6 7 4 6 3 4 6 6 4 6 5 4 6 5 8 10 8 7 5 4 4 6 7 5 4 7 5 2 3 1 4 2
2 2 6 4 3 0 5 3 1 4 6 6 7 8 7 5 4 3 4 6 8 4 4 5 4 3 6 5 5 8 7 6 5 3 4 5 4 5 5 6 4 4 6 6 6
2 3 3 4 3 5 4 6 6 3 6 4 4 6 3 3 1 3 3 7 7 4 5 3 3 6 10 7 6 6 8 5 2 4 6 8 5 5 3 5 6 6 6 6 6
2 1 4 4 3 3 8 5 7 6 8 6 5 2 3 3 3 4 7 6 6 6 3 2 2 4 6 7 2 3 6 8 6 5 5 6 7 4 5 6 4 5 4 9 5
4 3 2 3 5 6 2 2 8 5 4 4 5 5 4 1 2 4 4 9 7 3 3 3 4 4 7 5 4 4 5 8 8 7 6 9 7 8 5 5 5 5 6 4 7
3 2 2 3 2 2 2 3 7 7 4 4 5 5 4 5 5 1 2 1 2 5 5 2 3 2 4 3 2 3 4 3 5 7 6 6 5 4 3 3 5 2 4 6 8
3 1 4 1 1 2 4 4 5 5 8 9 6 6 8 8 6 4 4 3 3 3 4 1 3 3 4 2 4 5 7 6 6 5 7 9 8 1 1 1 2 3 3 7 9
Wind_Direction
296 292 292 290 295 297 295 301 298 297 302 311 313 316 318 315 298 221 178 58 71 118 194 181 201 210 223 210 258 283 242 91 46 32 90 120 105 82 78 79 60 59 78 98 120
297 295 298 287 295 289 290 292 292 302 310 309 313 317 316 319 286 209 61 67 185 158 225 240 217 201 169 129 159 307 28 46 17 40 84 73 89 110 121 92 81 83 90 103 96
308 303 296 296 287 289 291 291 299 307 305 306 313 311 310 309 256 69 38 145 146 223 272 288 257 230 133 158 69 54 10 330 38 99 98 93 66 96 120 70 80 100 85 88 82
324 316 306 295 294 292 285 296 300 300 299 307 311 310 311 245 96 64 46 160 190 254 251 240 214 200 76 89 96 103 52 64 73 110 89 84 88 65 65 83 80 78 79 78 72
328 320 303 298 295 289 290 295 290 297 299 299 308 312 285 217 89 88 106 128 176 217 265 311 18 337 70 115 99 104 84 85 92 92 86 82 73 80 72 83 84 77 75 79 79
330 314 304 308 294 291 289 286 284 294 290 291 305 318 273 178 99 114 135 172 230 233 298 314 20 41 72 74 351 112 108 96 98 95 90 88 74 73 66 91 84 77 77 79 86
334 318 323 311 304 289 279 275 293 285 276 283 303 290 269 47 150 161 187 240 245 269 314 21 360 299 101 101 117 132 119 99 93 123 126 103 60 74 88 86 89 89 87 82 79
339 331 328 324 302 289 300 305 291 269 259 261 251 254 335 125 236 240 216 233 222 255 285 331 234 94 109 126 160 169 219 145 60 184 27 243 112 54 111 109 90 99 101 95 79
343 330 332 324 305 307 311 285 269 253 235 199 219 262 107 138 195 112 200 226 159 187 225 190 206 120 143 156 169 200 93 119 86 33 152 308 127 142 105 116 105 97 105 90 82
340 333 332 318 311 303 297 230 174 194 211 217 260 221 169 26 24 183 179 227 236 211 212 217 203 180 184 216 350 123 128 89 88 57 86 93 124 130 152 161 123 113 86 89 81
338 327 328 319 297 262 165 174 208 184 209 348 358 319 18 357 174 171 185 191 211 221 202 202 227 62 48 42 64 87 104 112 112 106 96 129 145 152 155 148 117 107 109 126 112
335 329 325 323 302 235 254 12 29 357 284 209 285 275 278 326 174 113 198 232 206 153 168 177 78 82 101 100 105 105 119 113 115 179 222 157 141 145 179 126 129 133 124 112 114
337 328 327 329 28 193 352 40 315 280 258 121 202 299 30 242 48 61 279 100 143 140 168 92 116 130 125 120 133 54 18 168 55 160 162 176 182 179 160 147 148 127 172 122 107
336 330 316 314 171 156 119 335 308 212 184 119 152 106 185 270 77 6 358 322 102 99 99 93 127 158 190 68 318 63 4 189 166 199 325 203 332 187 165 177 194 190 170 144 112
333 328 301 222 344 228 0 329 153 234 127 142 118 98 172 10 119 82 14 286 93 122 255 101 133 101 64 24 330 51 199 216 201 243 263 184 255 99 162 187 189 205 152 122 102
338 329 234 197 230 33 319 209 229 226 101 144 157 160 157 93 85 101 85 69 36 100 72 107 96 42 50 56 30 130 174 233 219 252 251 94 281 74 73 292 140 151 119 107 74
347 348 231 282 50 328 293 239 225 20 171 121 130 197 111 76 90 128 105 63 44 183 138 134 85 96 10 271 152 241 300 311 289 283 333 80 276 41 45 38 28 130 114 89 66
352 313 134 32 321 307 254 233 108 93 61 110 152 131 100 21 102 110 168 102 46 316 187 238 162 20 15 23 330 338 329 322 311 320 324 151 356 66 34 40 55 77 103 99 101
334 161 78 6 335 289 248 200 74 40 9 61 139 175 123 98 118 140 71 57 28 359 321 228 133 110 48 33 348 353 331 337 285 267 261 63 106 105 107 68 65 105 118 134 213
196 175 53 337 321 264 237 73 89 27 353 246 95 357 87 55 146 103 69 25 23 18 311 72 203 330 51 286 87 12 1 309 288 296 314 93 64 35 11 81 148 148 139 230 244
234 189 33 340 264 230 154 85 95 58 39 23 84 91 77 62 40 61 41 88 16 12 26 337 302 109 227 24 7 347 359 330 284 317 316 329 71 36 6 20 104 104 158 43 34
291 156 17 311 188 313 133 53 249 70 73 89 66 59 54 34 50 88 87 37 0 341 33 29 352 336 48 81 31 50 13 347 320 27 348 280 72 32 23 43 49 56 75 61 44
34 33 55 292 163 133 120 102 58 93 40 66 89 48 58 74 105 95 100 51 36 38 22 7 61 298 157 180 126 37 19 2 313 267 26 326 77 49 46 44 37 60 82 69 44
296 156 79 70 61 110 137 114 115 49 69 61 92 92 121 78 58 142 123 58 57 73 32 34 50 353 19 45 345 64 32 24 355 349 347 48 339 88 39 14 55 75 64 54 34
360 66 5 79 63 79 147 140 135 105 90 37 100 60 28 97 107 112 127 134 99 151 82 28 84 81 77 77 68 76 35 30 42 19 9 5 337 45 23 36 67 75 68 29 13
8 331 145 78 348 114 27 74 113 108 359 72 99 80 63 77 26 96 180 219 67 108 74 26 112 138 100 102 94 79 59 15 29 9 350 330 81 62 96 95 71 83 36 21 9
43 118 292 4 71 242 44 45 86 108 54 77 93 106 80 50 17 33 53 61 48 7 92 64 135 252 82 158 268 195 26 1 343 7 348 346 14 103 181 47 96 62 24 12 14